QPF
0.05 0.08 0.16 0.17 0.17 0.14 0.07 0.04 0.04 0.04 0.03 0.04 0.07 0.06 0.06 0.04 0.02 0.02 0.02 0.01 0.01 0.01 0.01 0.01 0.02 0.03 0.04 0.03 0.04 0.04 0.04 0.05 0.04 0.03 0.03 0.04 0.06 0.05 0.04 0.06 0.06 0.03 0.05
0.03 0.07 0.15 0.18 0.19 0.13 0.07 0.04 0.03 0.03 0.04 0.04 0.06 0.06 0.07 0.04 0.03 0.02 0.02 0.01 0.01 0.01 0.01 0.02 0.03 0.04 0.04 0.05 0.05 0.06 0.06 0.05 0.04 0.04 0.04 0.04 0.05 0.05 0.05 0.06 0.05 0.05 0.06
0.03 0.08 0.15 0.19 0.19 0.13 0.07 0.05 0.03 0.02 0.04 0.05 0.06 0.06 0.06 0.04 0.03 0.03 0.02 0.01 0.01 0.02 0.02 0.02 0.03 0.03 0.04 0.05 0.06 0.07 0.06 0.05 0.03 0.03 0.03 0.01 0.03 0.06 0.06 0.07 0.08 0.07 0.06
0.05 0.07 0.12 0.17 0.15 0.14 0.09 0.06 0.04 0.04 0.04 0.05 0.06 0.05 0.05 0.04 0.03 0.02 0.02 0.02 0.02 0.02 0.02 0.02 0.02 0.02 0.03 0.05 0.06 0.06 0.06 0.04 0.04 0.02 0.00 0.00 0.01 0.04 0.06 0.08 0.07 0.06 0.05
0.07 0.08 0.13 0.14 0.12 0.12 0.11 0.06 0.05 0.05 0.05 0.05 0.04 0.04 0.04 0.03 0.04 0.03 0.02 0.03 0.02 0.02 0.02 0.02 0.02 0.01 0.02 0.04 0.05 0.06 0.07 0.05 0.03 0.01 0.00 0.01 0.02 0.06 0.05 0.06 0.05 0.04 0.04
0.09 0.12 0.14 0.14 0.10 0.08 0.10 0.08 0.08 0.07 0.06 0.04 0.03 0.05 0.04 0.03 0.03 0.03 0.02 0.02 0.02 0.02 0.02 0.01 0.01 0.01 0.02 0.03 0.03 0.04 0.06 0.04 0.02 0.00 0.01 0.02 0.04 0.09 0.05 0.05 0.04 0.03 0.03
0.09 0.12 0.14 0.13 0.09 0.08 0.07 0.08 0.08 0.08 0.07 0.05 0.03 0.04 0.03 0.03 0.03 0.03 0.02 0.02 0.02 0.02 0.02 0.02 0.01 0.01 0.02 0.03 0.03 0.03 0.04 0.03 0.01 0.00 0.01 0.01 0.03 0.07 0.07 0.04 0.04 0.04 0.03
0.09 0.11 0.16 0.13 0.10 0.08 0.09 0.08 0.08 0.09 0.08 0.06 0.04 0.04 0.03 0.02 0.02 0.02 0.02 0.01 0.01 0.01 0.01 0.01 0.01 0.01 0.02 0.02 0.03 0.03 0.03 0.02 0.01 0.00 0.00 0.01 0.03 0.05 0.07 0.05 0.04 0.04 0.03
0.11 0.13 0.14 0.09 0.09 0.09 0.12 0.09 0.07 0.07 0.07 0.05 0.05 0.04 0.04 0.05 0.03 0.03 0.02 0.01 0.01 0.01 0.01 0.01 0.01 0.02 0.02 0.03 0.04 0.04 0.03 0.02 0.01 0.01 0.01 0.02 0.05 0.05 0.05 0.06 0.06 0.06 0.04
0.08 0.09 0.07 0.05 0.06 0.11 0.14 0.15 0.10 0.07 0.05 0.05 0.05 0.05 0.04 0.04 0.03 0.02 0.01 0.01 0.01 0.00 0.00 0.01 0.02 0.02 0.02 0.03 0.04 0.04 0.02 0.01 0.01 0.01 0.01 0.05 0.07 0.06 0.06 0.06 0.07 0.06 0.04
0.08 0.07 0.05 0.03 0.04 0.07 0.11 0.18 0.12 0.07 0.04 0.03 0.04 0.06 0.04 0.02 0.01 0.01 0.01 0.01 0.01 0.01 0.01 0.02 0.03 0.03 0.02 0.03 0.04 0.03 0.01 0.00 0.00 0.01 0.01 0.05 0.09 0.08 0.06 0.05 0.04 0.04 0.03
0.05 0.05 0.03 0.03 0.04 0.04 0.06 0.16 0.16 0.08 0.05 0.02 0.03 0.06 0.02 0.01 0.01 0.01 0.02 0.02 0.01 0.01 0.01 0.02 0.02 0.02 0.01 0.02 0.01 0.01 0.01 0.01 0.00 0.01 0.02 0.08 0.14 0.13 0.06 0.05 0.05 0.03 0.02
0.02 0.03 0.04 0.07 0.06 0.04 0.04 0.07 0.12 0.10 0.06 0.03 0.01 0.01 0.01 0.01 0.01 0.01 0.01 0.01 0.01 0.01 0.00 0.00 0.00 0.00 0.00 0.01 0.00 0.01 0.02 0.02 0.01 0.01 0.03 0.08 0.11 0.10 0.06 0.04 0.06 0.05 0.04
0.02 0.02 0.02 0.05 0.06 0.05 0.05 0.04 0.05 0.09 0.07 0.04 0.02 0.01 0.01 0.01 0.01 0.01 0.00 0.00 0.00 0.00 0.00 0.00 0.00 0.00 0.00 0.01 0.01 0.02 0.02 0.02 0.02 0.02 0.03 0.06 0.08 0.11 0.09 0.06 0.06 0.07 0.06
0.03 0.02 0.02 0.02 0.03 0.02 0.03 0.03 0.03 0.06 0.08 0.05 0.03 0.01 0.01 0.01 0.01 0.00 0.00 0.00 0.00 0.00 0.00 0.00 0.00 0.00 0.00 0.01 0.02 0.02 0.02 0.02 0.01 0.01 0.02 0.04 0.06 0.10 0.10 0.09 0.10 0.13 0.11
0.04 0.03 0.02 0.01 0.01 0.01 0.01 0.02 0.03 0.04 0.07 0.05 0.03 0.02 0.01 0.01 0.00 0.00 0.00 0.00 0.00 0.00 0.01 0.01 0.01 0.01 0.00 0.02 0.03 0.01 0.01 0.01 0.01 0.00 0.01 0.02 0.04 0.07 0.08 0.10 0.14 0.15 0.11
0.05 0.03 0.01 0.01 0.01 0.00 0.01 0.01 0.02 0.03 0.05 0.04 0.04 0.02 0.01 0.00 0.00 0.00 0.00 0.00 0.00 0.00 0.01 0.00 0.01 0.01 0.01 0.03 0.04 0.01 0.01 0.00 0.00 0.00 0.00 0.01 0.02 0.03 0.07 0.19 0.25 0.19 0.14
0.04 0.04 0.02 0.01 0.01 0.01 0.01 0.01 0.01 0.02 0.02 0.02 0.02 0.02 0.00 0.00 0.01 0.01 0.00 0.00 0.00 0.00 0.00 0.00 0.00 0.00 0.01 0.03 0.02 0.02 0.01 0.01 0.00 0.00 0.00 0.00 0.01 0.01 0.07 0.19 0.24 0.21 0.15
0.05 0.04 0.04 0.02 0.02 0.02 0.02 0.02 0.01 0.01 0.01 0.01 0.01 0.01 0.00 0.00 0.00 0.01 0.00 0.00 0.00 0.00 0.00 0.00 0.00 0.00 0.01 0.01 0.01 0.01 0.02 0.01 0.01 0.01 0.01 0.00 0.01 0.01 0.04 0.08 0.12 0.15 0.14
0.06 0.04 0.03 0.03 0.03 0.03 0.04 0.04 0.02 0.01 0.01 0.00 0.00 0.00 0.00 0.00 0.00 0.00 0.00 0.00 0.00 0.00 0.00 0.00 0.00 0.00 0.00 0.01 0.01 0.01 0.01 0.01 0.01 0.01 0.01 0.01 0.01 0.01 0.02 0.03 0.03 0.04 0.07
0.04 0.04 0.04 0.04 0.04 0.03 0.03 0.04 0.03 0.02 0.01 0.00 0.00 0.00 0.00 0.00 0.00 0.00 0.00 0.00 0.00 0.00 0.00 0.00 0.00 0.00 0.00 0.00 0.01 0.01 0.01 0.02 0.01 0.01 0.01 0.01 0.01 0.01 0.01 0.01 0.01 0.02 0.04
0.03 0.03 0.05 0.03 0.03 0.04 0.04 0.03 0.03 0.02 0.01 0.00 0.00 0.00 0.00 0.00 0.00 0.00 0.00 0.00 0.00 0.00 0.00 0.00 0.00 0.00 0.00 0.00 0.00 0.01 0.01 0.01 0.01 0.01 0.01 0.01 0.01 0.01 0.01 0.00 0.00 0.01 0.02
0.01 0.02 0.03 0.03 0.03 0.05 0.05 0.03 0.02 0.02 0.01 0.01 0.00 0.00 0.00 0.00 0.00 0.00 0.00 0.00 0.00 0.00 0.00 0.00 0.00 0.00 0.00 0.00 0.00 0.00 0.00 0.01 0.01 0.01 0.01 0.01 0.01 0.00 0.00 0.01 0.01 0.00 0.01
0.01 0.01 0.01 0.02 0.02 0.03 0.03 0.04 0.05 0.04 0.02 0.01 0.00 0.00 0.00 0.00 0.00 0.00 0.00 0.01 0.00 0.00 0.00 0.00 0.00 0.00 0.00 0.00 0.00 0.00 0.00 0.00 0.00 0.00 0.00 0.00 0.01 0.01 0.01 0.01 0.01 0.01 0.00
0.01 0.01 0.01 0.01 0.02 0.03 0.03 0.04 0.06 0.05 0.03 0.01 0.01 0.00 0.00 0.00 0.00 0.00 0.00 0.00 0.01 0.01 0.01 0.01 0.01 0.00 0.00 0.01 0.00 0.00 0.00 0.00 0.00 0.00 0.00 0.00 0.00 0.00 0.01 0.02 0.02 0.02 0.02
0.01 0.01 0.01 0.01 0.01 0.02 0.03 0.03 0.03 0.03 0.02 0.01 0.00 0.00 0.00 0.00 0.00 0.00 0.00 0.00 0.00 0.00 0.00 0.01 0.01 0.01 0.01 0.01 0.00 0.00 0.00 0.00 0.00 0.00 0.00 0.00 0.00 0.00 0.02 0.04 0.04 0.06 0.05
MSLP
1012.43 1012.10 1011.89 1011.87 1012.02 1012.29 1012.62 1012.95 1013.21 1013.38 1013.47 1013.50 1013.54 1013.63 1013.82 1014.10 1014.46 1014.86 1015.23 1015.54 1015.76 1015.88 1015.93 1015.92 1015.91 1015.90 1015.91 1015.95 1015.99 1016.03 1016.04 1016.02 1015.98 1015.92 1015.86 1015.80 1015.75 1015.69 1015.62 1015.54 1015.45 1015.35 1015.26
1012.38 1012.09 1011.94 1011.95 1012.13 1012.43 1012.77 1013.11 1013.37 1013.55 1013.66 1013.72 1013.78 1013.91 1014.11 1014.41 1014.76 1015.15 1015.51 1015.80 1016.02 1016.14 1016.20 1016.21 1016.20 1016.20 1016.21 1016.23 1016.24 1016.25 1016.23 1016.20 1016.15 1016.10 1016.06 1016.03 1016.00 1015.97 1015.92 1015.85 1015.75 1015.65 1015.56
1012.28 1012.05 1011.96 1012.03 1012.24 1012.56 1012.93 1013.27 1013.56 1013.76 1013.90 1013.99 1014.09 1014.23 1014.45 1014.73 1015.06 1015.40 1015.72 1015.98 1016.17 1016.28 1016.35 1016.38 1016.39 1016.41 1016.43 1016.45 1016.46 1016.45 1016.42 1016.38 1016.34 1016.30 1016.28 1016.27 1016.27 1016.27 1016.24 1016.18 1016.10 1016.00 1015.91
1012.23 1012.07 1012.03 1012.15 1012.41 1012.75 1013.13 1013.49 1013.79 1014.02 1014.18 1014.31 1014.43 1014.59 1014.80 1015.06 1015.34 1015.63 1015.88 1016.09 1016.24 1016.35 1016.42 1016.48 1016.53 1016.58 1016.63 1016.67 1016.68 1016.67 1016.65 1016.61 1016.57 1016.55 1016.55 1016.56 1016.59 1016.60 1016.59 1016.55 1016.48 1016.40 1016.31
1012.29 1012.21 1012.24 1012.40 1012.68 1013.04 1013.42 1013.77 1014.08 1014.31 1014.50 1014.65 1014.80 1014.97 1015.17 1015.39 1015.62 1015.84 1016.03 1016.19 1016.31 1016.41 1016.49 1016.58 1016.68 1016.77 1016.86 1016.93 1016.97 1016.97 1016.95 1016.91 1016.88 1016.87 1016.88 1016.91 1016.95 1016.97 1016.97 1016.95 1016.90 1016.83 1016.77
1012.55 1012.53 1012.62 1012.82 1013.11 1013.45 1013.81 1014.14 1014.42 1014.65 1014.84 1015.01 1015.17 1015.35 1015.53 1015.73 1015.91 1016.08 1016.22 1016.33 1016.43 1016.52 1016.63 1016.75 1016.90 1017.04 1017.17 1017.27 1017.33 1017.34 1017.33 1017.29 1017.27 1017.25 1017.27 1017.29 1017.33 1017.36 1017.37 1017.35 1017.31 1017.27 1017.23
1013.03 1013.07 1013.19 1013.40 1013.68 1013.99 1014.29 1014.57 1014.81 1015.01 1015.18 1015.35 1015.52 1015.70 1015.89 1016.07 1016.23 1016.36 1016.46 1016.55 1016.63 1016.73 1016.86 1017.02 1017.20 1017.38 1017.55 1017.67 1017.74 1017.76 1017.75 1017.71 1017.68 1017.66 1017.66 1017.68 1017.71 1017.73 1017.74 1017.73 1017.70 1017.67 1017.65
1013.70 1013.77 1013.91 1014.12 1014.36 1014.61 1014.84 1015.04 1015.22 1015.37 1015.52 1015.68 1015.86 1016.04 1016.24 1016.41 1016.56 1016.68 1016.76 1016.83 1016.91 1017.02 1017.17 1017.35 1017.55 1017.76 1017.94 1018.07 1018.15 1018.17 1018.15 1018.11 1018.06 1018.03 1018.03 1018.03 1018.05 1018.06 1018.06 1018.04 1018.02 1018.01 1018.01
1014.47 1014.56 1014.71 1014.89 1015.08 1015.26 1015.41 1015.53 1015.63 1015.73 1015.84 1015.99 1016.17 1016.37 1016.57 1016.75 1016.91 1017.02 1017.10 1017.17 1017.24 1017.35 1017.50 1017.69 1017.90 1018.11 1018.29 1018.42 1018.48 1018.49 1018.46 1018.41 1018.36 1018.32 1018.31 1018.31 1018.31 1018.31 1018.30 1018.28 1018.27 1018.26 1018.28
1015.23 1015.34 1015.48 1015.63 1015.77 1015.87 1015.94 1015.99 1016.02 1016.07 1016.15 1016.28 1016.46 1016.67 1016.89 1017.08 1017.24 1017.35 1017.43 1017.49 1017.56 1017.66 1017.79 1017.97 1018.17 1018.36 1018.52 1018.63 1018.68 1018.68 1018.64 1018.59 1018.53 1018.49 1018.48 1018.48 1018.48 1018.48 1018.47 1018.46 1018.45 1018.46 1018.49
1015.87 1015.99 1016.12 1016.25 1016.34 1016.39 1016.40 1016.39 1016.37 1016.38 1016.44 1016.57 1016.75 1016.96 1017.18 1017.38 1017.53 1017.64 1017.71 1017.75 1017.81 1017.88 1018.00 1018.14 1018.31 1018.47 1018.60 1018.69 1018.72 1018.71 1018.67 1018.61 1018.57 1018.54 1018.53 1018.55 1018.56 1018.58 1018.59 1018.59 1018.59 1018.61 1018.65
1016.33 1016.46 1016.59 1016.70 1016.77 1016.79 1016.76 1016.72 1016.68 1016.67 1016.72 1016.84 1017.01 1017.22 1017.43 1017.62 1017.77 1017.86 1017.91 1017.93 1017.96 1018.01 1018.09 1018.20 1018.32 1018.45 1018.55 1018.61 1018.63 1018.61 1018.57 1018.52 1018.49 1018.48 1018.50 1018.53 1018.58 1018.62 1018.66 1018.68 1018.71 1018.75 1018.80
1016.58 1016.71 1016.85 1016.96 1017.03 1017.05 1017.02 1016.98 1016.94 1016.93 1016.99 1017.10 1017.26 1017.45 1017.65 1017.81 1017.93 1018.00 1018.02 1018.02 1018.02 1018.04 1018.08 1018.15 1018.25 1018.34 1018.41 1018.45 1018.46 1018.44 1018.40 1018.37 1018.35 1018.36 1018.40 1018.46 1018.54 1018.61 1018.69 1018.76 1018.82 1018.88 1018.95
1016.65 1016.80 1016.95 1017.07 1017.16 1017.20 1017.20 1017.18 1017.16 1017.18 1017.23 1017.34 1017.48 1017.65 1017.81 1017.93 1018.02 1018.06 1018.06 1018.03 1018.01 1018.00 1018.03 1018.07 1018.14 1018.21 1018.26 1018.29 1018.30 1018.28 1018.25 1018.22 1018.21 1018.23 1018.28 1018.36 1018.46 1018.58 1018.69 1018.80 1018.91 1019.01 1019.09
1016.62 1016.78 1016.94 1017.09 1017.21 1017.29 1017.33 1017.35 1017.37 1017.40 1017.47 1017.56 1017.67 1017.80 1017.91 1018.00 1018.05 1018.05 1018.03 1018.00 1017.97 1017.96 1017.97 1018.01 1018.07 1018.13 1018.18 1018.21 1018.21 1018.19 1018.16 1018.13 1018.12 1018.14 1018.19 1018.27 1018.38 1018.52 1018.67 1018.82 1018.96 1019.09 1019.20
1016.57 1016.74 1016.92 1017.09 1017.24 1017.36 1017.45 1017.52 1017.57 1017.63 1017.69 1017.76 1017.84 1017.91 1017.97 1018.01 1018.02 1018.01 1017.99 1017.96 1017.94 1017.94 1017.97 1018.02 1018.08 1018.15 1018.21 1018.24 1018.25 1018.24 1018.20 1018.16 1018.13 1018.12 1018.15 1018.21 1018.31 1018.45 1018.61 1018.79 1018.97 1019.13 1019.26
1016.59 1016.77 1016.95 1017.14 1017.31 1017.47 1017.60 1017.71 1017.80 1017.87 1017.92 1017.96 1017.99 1018.01 1018.01 1018.00 1017.98 1017.96 1017.94 1017.93 1017.94 1017.97 1018.03 1018.11 1018.20 1018.28 1018.35 1018.41 1018.43 1018.41 1018.37 1018.32 1018.26 1018.21 1018.19 1018.21 1018.28 1018.39 1018.54 1018.73 1018.92 1019.11 1019.25
1016.74 1016.89 1017.07 1017.26 1017.46 1017.64 1017.81 1017.95 1018.07 1018.14 1018.17 1018.17 1018.15 1018.10 1018.05 1018.00 1017.95 1017.92 1017.92 1017.94 1017.99 1018.06 1018.16 1018.27 1018.38 1018.49 1018.59 1018.66 1018.70 1018.70 1018.66 1018.59 1018.50 1018.41 1018.34 1018.30 1018.31 1018.38 1018.50 1018.67 1018.86 1019.05 1019.20
1016.99 1017.13 1017.29 1017.48 1017.68 1017.89 1018.08 1018.25 1018.37 1018.44 1018.46 1018.42 1018.34 1018.23 1018.13 1018.03 1017.97 1017.93 1017.95 1017.99 1018.08 1018.19 1018.31 1018.45 1018.60 1018.73 1018.86 1018.95 1019.02 1019.04 1019.01 1018.95 1018.84 1018.72 1018.60 1018.51 1018.45 1018.46 1018.53 1018.66 1018.82 1018.99 1019.13
1017.34 1017.45 1017.59 1017.76 1017.96 1018.18 1018.39 1018.58 1018.72 1018.79 1018.78 1018.71 1018.58 1018.43 1018.27 1018.14 1018.05 1018.01 1018.03 1018.09 1018.20 1018.33 1018.48 1018.63 1018.79 1018.95 1019.09 1019.22 1019.32 1019.38 1019.39 1019.35 1019.25 1019.12 1018.97 1018.83 1018.72 1018.66 1018.67 1018.74 1018.86 1018.99 1019.11
1017.72 1017.80 1017.92 1018.08 1018.27 1018.50 1018.73 1018.93 1019.08 1019.15 1019.14 1019.04 1018.88 1018.69 1018.49 1018.33 1018.21 1018.16 1018.18 1018.24 1018.35 1018.47 1018.62 1018.77 1018.93 1019.09 1019.25 1019.41 1019.55 1019.67 1019.73 1019.74 1019.68 1019.57 1019.41 1019.25 1019.10 1018.99 1018.93 1018.94 1019.00 1019.08 1019.16
1018.08 1018.14 1018.24 1018.38 1018.57 1018.79 1019.04 1019.27 1019.44 1019.52 1019.51 1019.41 1019.23 1019.02 1018.80 1018.61 1018.47 1018.40 1018.39 1018.43 1018.51 1018.62 1018.73 1018.86 1018.99 1019.15 1019.32 1019.51 1019.69 1019.86 1020.00 1020.07 1020.08 1020.01 1019.89 1019.72 1019.55 1019.41 1019.30 1019.25 1019.24 1019.27 1019.30
1018.38 1018.44 1018.51 1018.64 1018.82 1019.05 1019.31 1019.55 1019.75 1019.86 1019.87 1019.78 1019.60 1019.39 1019.16 1018.95 1018.79 1018.70 1018.66 1018.67 1018.71 1018.76 1018.83 1018.90 1019.00 1019.13 1019.30 1019.50 1019.72 1019.95 1020.16 1020.31 1020.39 1020.39 1020.31 1020.18 1020.02 1019.85 1019.71 1019.61 1019.55 1019.52 1019.51
1018.63 1018.68 1018.74 1018.85 1019.02 1019.25 1019.51 1019.77 1019.99 1020.13 1020.17 1020.10 1019.95 1019.75 1019.53 1019.32 1019.15 1019.04 1018.97 1018.93 1018.92 1018.92 1018.92 1018.94 1018.98 1019.07 1019.22 1019.42 1019.67 1019.94 1020.20 1020.42 1020.58 1020.65 1020.63 1020.54 1020.40 1020.23 1020.08 1019.94 1019.85 1019.78 1019.73
1018.82 1018.88 1018.93 1019.02 1019.17 1019.39 1019.64 1019.91 1020.14 1020.31 1020.37 1020.34 1020.23 1020.05 1019.85 1019.66 1019.50 1019.37 1019.28 1019.21 1019.15 1019.09 1019.04 1018.99 1018.98 1019.02 1019.13 1019.31 1019.56 1019.84 1020.14 1020.40 1020.62 1020.74 1020.78 1020.73 1020.63 1020.48 1020.33 1020.18 1020.06 1019.97 1019.89
1018.99 1019.06 1019.10 1019.17 1019.30 1019.48 1019.72 1019.97 1020.20 1020.38 1020.47 1020.47 1020.39 1020.26 1020.10 1019.93 1019.79 1019.66 1019.56 1019.47 1019.38 1019.28 1019.18 1019.09 1019.03 1019.02 1019.09 1019.23 1019.45 1019.71 1020.01 1020.28 1020.51 1020.67 1020.75 1020.74 1020.67 1020.55 1020.41 1020.28 1020.15 1020.05 1019.96
Thickness
5770 5773 5773 5773 5772 5771 5771 5771 5770 5770 5770 5769 5769 5767 5767 5766 5766 5765 5764 5763 5763 5762 5762 5762 5761 5762 5761 5761 5761 5761 5761 5762 5762 5762 5763 5764 5764 5764 5764 5765 5765 5765 5766
5772 5773 5772 5772 5771 5770 5769 5769 5768 5768 5768 5767 5766 5765 5765 5764 5764 5763 5762 5761 5761 5760 5759 5759 5759 5759 5759 5759 5759 5759 5759 5760 5760 5760 5760 5761 5761 5762 5762 5763 5763 5763 5764
5772 5772 5771 5770 5769 5768 5768 5767 5767 5766 5766 5765 5764 5764 5763 5763 5762 5761 5760 5759 5758 5758 5757 5757 5757 5757 5756 5757 5757 5757 5757 5757 5757 5757 5757 5758 5759 5759 5760 5760 5761 5761 5762
5771 5771 5770 5769 5768 5767 5766 5765 5765 5764 5764 5763 5762 5761 5761 5761 5760 5759 5758 5757 5756 5756 5755 5755 5754 5754 5754 5754 5754 5754 5754 5754 5754 5754 5755 5755 5756 5757 5757 5758 5758 5759 5759
5769 5769 5768 5767 5766 5765 5764 5764 5763 5763 5762 5761 5760 5759 5759 5759 5758 5757 5756 5755 5754 5754 5753 5752 5752 5752 5752 5752 5752 5752 5752 5752 5752 5752 5752 5752 5753 5754 5755 5755 5756 5756 5757
5767 5767 5766 5765 5765 5764 5763 5762 5761 5761 5760 5759 5758 5758 5757 5756 5756 5755 5754 5753 5752 5751 5751 5750 5750 5750 5750 5750 5750 5750 5750 5749 5749 5749 5749 5750 5750 5751 5751 5752 5753 5754 5755
5765 5765 5764 5763 5763 5762 5761 5760 5759 5759 5758 5757 5756 5756 5755 5754 5754 5753 5752 5751 5750 5749 5748 5748 5748 5748 5748 5748 5748 5747 5747 5747 5746 5746 5746 5746 5747 5748 5749 5749 5750 5751 5752
5762 5762 5762 5761 5761 5760 5759 5758 5757 5757 5755 5755 5754 5754 5753 5752 5751 5750 5749 5749 5747 5747 5746 5746 5745 5745 5745 5745 5745 5745 5744 5743 5743 5743 5743 5743 5744 5745 5746 5747 5747 5748 5749
5759 5759 5758 5759 5758 5758 5757 5756 5755 5754 5754 5753 5753 5752 5750 5750 5749 5748 5747 5746 5745 5744 5744 5743 5743 5742 5742 5742 5742 5742 5741 5740 5740 5740 5740 5740 5741 5742 5743 5744 5744 5745 5746
5756 5756 5756 5755 5755 5755 5754 5753 5753 5752 5752 5751 5750 5749 5748 5747 5746 5745 5744 5744 5743 5742 5741 5741 5740 5740 5739 5739 5739 5738 5737 5737 5736 5736 5736 5737 5739 5739 5740 5741 5742 5742 5743
5751 5751 5752 5751 5751 5751 5751 5751 5750 5750 5749 5749 5748 5747 5746 5745 5744 5743 5742 5741 5740 5740 5739 5738 5738 5737 5736 5736 5735 5734 5734 5733 5733 5733 5734 5735 5735 5737 5737 5738 5739 5739 5740
5744 5746 5748 5748 5748 5748 5748 5747 5747 5746 5746 5746 5746 5745 5744 5743 5742 5741 5740 5739 5738 5737 5737 5736 5735 5734 5733 5732 5731 5730 5730 5729 5729 5729 5730 5731 5732 5733 5734 5735 5736 5737 5738
5741 5743 5744 5745 5745 5745 5744 5744 5744 5744 5744 5743 5743 5742 5741 5740 5739 5738 5737 5736 5735 5735 5734 5733 5732 5731 5730 5728 5727 5726 5726 5725 5725 5725 5726 5728 5729 5730 5731 5733 5734 5734 5735
5739 5740 5742 5742 5742 5742 5742 5741 5741 5741 5741 5741 5740 5740 5739 5738 5737 5736 5735 5734 5733 5732 5731 5730 5728 5727 5726 5725 5724 5722 5722 5721 5721 5721 5722 5723 5724 5726 5728 5730 5731 5731 5732
5735 5736 5738 5739 5739 5739 5739 5739 5739 5739 5739 5738 5738 5737 5737 5736 5735 5734 5733 5732 5730 5729 5728 5726 5725 5724 5723 5721 5720 5719 5718 5717 5717 5717 5718 5719 5720 5722 5724 5727 5728 5728 5729
5732 5733 5735 5736 5736 5736 5736 5735 5736 5737 5736 5736 5735 5735 5734 5734 5733 5732 5731 5729 5728 5727 5725 5724 5722 5721 5719 5718 5716 5715 5714 5713 5713 5713 5713 5714 5715 5717 5720 5723 5724 5725 5725
5730 5731 5732 5733 5733 5733 5733 5733 5733 5733 5734 5733 5733 5733 5732 5732 5731 5730 5729 5727 5726 5724 5723 5721 5719 5717 5716 5714 5712 5711 5710 5710 5709 5709 5709 5710 5710 5712 5714 5716 5718 5719 5721
5729 5728 5729 5731 5730 5730 5729 5729 5730 5730 5731 5731 5730 5730 5730 5729 5729 5727 5726 5724 5723 5722 5720 5718 5716 5713 5710 5709 5708 5707 5706 5706 5706 5705 5705 5705 5706 5707 5708 5709 5711 5713 5715
5727 5726 5726 5726 5727 5726 5726 5726 5726 5726 5727 5727 5728 5728 5727 5727 5726 5725 5724 5722 5721 5719 5718 5716 5712 5710 5706 5704 5704 5702 5702 5701 5701 5701 5701 5701 5701 5702 5703 5703 5706 5708 5709
5724 5724 5723 5723 5723 5723 5723 5722 5722 5722 5723 5724 5724 5725 5724 5723 5723 5722 5720 5719 5718 5716 5714 5712 5709 5707 5703 5702 5701 5698 5697 5697 5697 5697 5697 5697 5697 5698 5698 5699 5701 5702 5703
5720 5720 5720 5720 5720 5720 5719 5718 5717 5717 5718 5719 5720 5721 5721 5720 5720 5719 5718 5716 5715 5713 5710 5709 5706 5702 5699 5698 5695 5692 5692 5692 5692 5692 5692 5693 5693 5693 5694 5694 5695 5696 5698
5717 5717 5717 5717 5717 5718 5717 5717 5715 5715 5715 5716 5717 5717 5717 5717 5716 5715 5715 5713 5712 5710 5707 5705 5704 5699 5696 5695 5691 5686 5682 5683 5686 5688 5688 5688 5688 5689 5689 5690 5691 5692 5692
5715 5715 5716 5715 5715 5715 5716 5715 5713 5712 5712 5711 5711 5712 5713 5713 5713 5712 5711 5711 5709 5707 5705 5703 5701 5698 5693 5691 5690 5686 5680 5676 5678 5681 5683 5683 5684 5684 5685 5685 5686 5687 5688
5714 5715 5714 5713 5713 5713 5713 5712 5710 5707 5705 5706 5707 5708 5709 5710 5709 5709 5709 5708 5706 5705 5703 5701 5699 5696 5693 5689 5687 5686 5684 5681 5676 5674 5677 5679 5680 5680 5680 5681 5681 5682 5683
5713 5713 5712 5711 5710 5710 5710 5710 5708 5706 5705 5704 5705 5705 5705 5706 5706 5706 5705 5705 5703 5702 5700 5699 5696 5695 5692 5689 5686 5683 5681 5679 5677 5673 5670 5672 5674 5675 5676 5676 5676 5677 5678
5711 5710 5709 5708 5707 5707 5707 5706 5705 5704 5702 5701 5701 5700 5700 5701 5702 5702 5702 5701 5700 5699 5697 5696 5694 5692 5690 5688 5685 5683 5681 5678 5676 5673 5669 5668 5668 5670 5671 5672 5671 5672 5674